Year,Month,Day,Hour,Minute,Value (Times are PST for barometer in hPa)
2016,10,14,00,00,981.66
2016,10,14,00,01,981.32
2016,10,14,00,02,981.14
2016,10,14,00,03,981.04
2016,10,14,00,04,981.16
2016,10,14,00,05,981.00
2016,10,14,00,06,981.03
2016,10,14,00,07,980.86
2016,10,14,00,08,980.80
2016,10,14,00,09,980.70
2016,10,14,00,10,980.60
2016,10,14,00,11,980.60
2016,10,14,00,12,980.46
2016,10,14,00,13,980.35
2016,10,14,00,14,980.22
2016,10,14,00,15,980.28
2016,10,14,00,16,980.12
2016,10,14,00,17,980.12
2016,10,14,00,18,980.08
2016,10,14,00,19,979.89
2016,10,14,00,20,979.95
2016,10,14,00,21,979.84
2016,10,14,00,22,979.65
2016,10,14,00,23,979.61
2016,10,14,00,24,979.61
2016,10,14,00,25,979.72
2016,10,14,00,26,979.65
2016,10,14,00,27,979.58
2016,10,14,00,28,979.51
2016,10,14,00,29,979.55
2016,10,14,00,30,979.48
2016,10,14,00,31,979.69
2016,10,14,00,32,979.85
2016,10,14,00,33,979.85
2016,10,14,00,34,979.95
2016,10,14,00,35,980.06
2016,10,14,00,36,980.06
2016,10,14,00,37,980.12
2016,10,14,00,38,980.16
2016,10,14,00,39,980.26
2016,10,14,00,40,980.22
2016,10,14,00,41,980.23
2016,10,14,00,42,980.46
2016,10,14,00,43,980.56
2016,10,14,00,44,980.66
2016,10,14,00,45,980.63
2016,10,14,00,46,980.61
2016,10,14,00,47,980.77
2016,10,14,00,48,980.66
2016,10,14,00,49,980.70
2016,10,14,00,50,980.63
2016,10,14,00,51,980.66
2016,10,14,00,52,980.63
2016,10,14,00,53,980.70
2016,10,14,00,54,980.73
2016,10,14,00,55,980.80
2016,10,14,00,56,980.80
2016,10,14,00,57,980.73
2016,10,14,00,58,980.80
2016,10,14,00,59,980.80
2016,10,14,01,00,980.77
2016,10,14,01,01,980.83
2016,10,14,01,02,980.94
2016,10,14,01,03,980.97
2016,10,14,01,04,980.90
2016,10,14,01,05,980.96
2016,10,14,01,06,980.77
2016,10,14,01,07,980.83
2016,10,14,01,08,980.83
2016,10,14,01,09,980.77
2016,10,14,01,10,980.70
2016,10,14,01,11,980.80
2016,10,14,01,12,980.94
2016,10,14,01,13,980.87
2016,10,14,01,14,980.80
2016,10,14,01,15,980.73
2016,10,14,01,16,980.70
2016,10,14,01,17,980.70
2016,10,14,01,18,980.73
2016,10,14,01,19,980.73
2016,10,14,01,20,980.83
2016,10,14,01,21,980.90
2016,10,14,01,22,980.91
2016,10,14,01,23,981.07
2016,10,14,01,24,981.17
2016,10,14,01,25,981.10
2016,10,14,01,26,981.14
2016,10,14,01,27,981.24
2016,10,14,01,28,981.44
2016,10,14,01,29,981.41
2016,10,14,01,30,981.34
2016,10,14,01,31,981.31
2016,10,14,01,32,981.28
2016,10,14,01,33,981.41
2016,10,14,01,34,981.55
2016,10,14,01,35,981.51
2016,10,14,01,36,981.51
2016,10,14,01,37,981.52
2016,10,14,01,38,981.76
2016,10,14,01,39,981.85
2016,10,14,01,40,981.95
2016,10,14,01,41,981.88
2016,10,14,01,42,981.92
2016,10,14,01,43,981.82
2016,10,14,01,44,981.68
2016,10,14,01,45,981.75
2016,10,14,01,46,981.75
2016,10,14,01,47,981.75
2016,10,14,01,48,981.75
2016,10,14,01,49,981.85
2016,10,14,01,50,981.82
2016,10,14,01,51,981.75
2016,10,14,01,52,981.85
2016,10,14,01,53,981.95
2016,10,14,01,54,982.05
2016,10,14,01,55,982.15
2016,10,14,01,56,982.02
2016,10,14,01,57,982.02
2016,10,14,01,58,981.92
2016,10,14,01,59,981.92
2016,10,14,02,00,981.99
2016,10,14,02,01,981.92
2016,10,14,02,02,981.93
2016,10,14,02,03,982.19
2016,10,14,02,04,982.29
2016,10,14,02,05,982.26
2016,10,14,02,06,982.32
2016,10,14,02,07,982.42
2016,10,14,02,08,982.26
2016,10,14,02,09,982.36
2016,10,14,02,10,982.43
2016,10,14,02,11,982.49
2016,10,14,02,12,982.59
2016,10,14,02,13,982.56
2016,10,14,02,14,982.57
2016,10,14,02,15,982.70
2016,10,14,02,16,982.90
2016,10,14,02,17,982.90
2016,10,14,02,18,983.18
2016,10,14,02,19,983.41
2016,10,14,02,20,983.34
2016,10,14,02,21,983.41
2016,10,14,02,22,983.48
2016,10,14,02,23,983.51
2016,10,14,02,24,983.61
2016,10,14,02,25,983.64
2016,10,14,02,26,983.75
2016,10,14,02,27,983.81
2016,10,14,02,28,983.68
2016,10,14,02,29,983.75
2016,10,14,02,30,983.75
2016,10,14,02,31,983.85
2016,10,14,02,32,983.81
2016,10,14,02,33,983.81
2016,10,14,02,34,983.95
2016,10,14,02,35,983.95
2016,10,14,02,36,983.98
2016,10,14,02,37,984.12
2016,10,14,02,38,984.22
2016,10,14,02,39,984.36
2016,10,14,02,40,984.36
2016,10,14,02,41,984.46
2016,10,14,02,42,984.46
2016,10,14,02,43,984.32
2016,10,14,02,44,984.22
2016,10,14,02,45,984.36
2016,10,14,02,46,984.39
2016,10,14,02,47,984.42
2016,10,14,02,48,984.53
2016,10,14,02,49,984.59
2016,10,14,02,50,984.56
2016,10,14,02,51,984.66
2016,10,14,02,52,984.66
2016,10,14,02,53,984.69
2016,10,14,02,54,984.62
2016,10,14,02,55,984.45
2016,10,14,02,56,984.25
2016,10,14,02,57,984.29
2016,10,14,02,58,984.39
2016,10,14,02,59,984.59
2016,10,14,03,00,984.66
2016,10,14,03,01,984.59
2016,10,14,03,02,984.56
2016,10,14,03,03,984.56
2016,10,14,03,04,984.66
2016,10,14,03,05,984.66
2016,10,14,03,06,984.73
2016,10,14,03,07,984.69
2016,10,14,03,08,984.73
2016,10,14,03,09,984.76
2016,10,14,03,10,984.86
2016,10,14,03,11,984.90
2016,10,14,03,12,984.90
2016,10,14,03,13,984.86
2016,10,14,03,14,984.90
2016,10,14,03,15,984.90
2016,10,14,03,16,984.90
2016,10,14,03,17,984.93
2016,10,14,03,18,984.90
2016,10,14,03,19,984.90
2016,10,14,03,20,984.90
2016,10,14,03,21,984.97
2016,10,14,03,22,985.00
2016,10,14,03,23,985.13
2016,10,14,03,24,985.13
2016,10,14,03,25,985.17
2016,10,14,03,26,985.17
2016,10,14,03,27,985.24
2016,10,14,03,28,985.30
2016,10,14,03,29,985.30
2016,10,14,03,30,985.34
2016,10,14,03,31,985.27
2016,10,14,03,32,985.20
2016,10,14,03,33,985.27
2016,10,14,03,34,985.30
2016,10,14,03,35,985.27
2016,10,14,03,36,985.30
2016,10,14,03,37,985.30
2016,10,14,03,38,985.27
2016,10,14,03,39,985.34
2016,10,14,03,40,985.37
2016,10,14,03,41,985.47
2016,10,14,03,42,985.44
2016,10,14,03,43,985.34
2016,10,14,03,44,985.30
2016,10,14,03,45,985.34
2016,10,14,03,46,985.44
2016,10,14,03,47,985.44
2016,10,14,03,48,985.44
2016,10,14,03,49,985.41
2016,10,14,03,50,985.47
2016,10,14,03,51,985.51
2016,10,14,03,52,985.51
2016,10,14,03,53,985.51
2016,10,14,03,54,985.47
2016,10,14,03,55,985.51
2016,10,14,03,56,985.54
2016,10,14,03,57,985.47
2016,10,14,03,58,985.41
2016,10,14,03,59,985.54
2016,10,14,04,00,985.44
2016,10,14,04,01,985.41
2016,10,14,04,02,985.37
2016,10,14,04,03,985.51
2016,10,14,04,04,985.57
2016,10,14,04,05,985.54
2016,10,14,04,06,985.54
2016,10,14,04,07,985.61
2016,10,14,04,08,985.47
2016,10,14,04,09,985.51
2016,10,14,04,10,985.54
2016,10,14,04,11,985.68
2016,10,14,04,12,985.61
2016,10,14,04,13,985.64
2016,10,14,04,14,985.68
2016,10,14,04,15,985.58
2016,10,14,04,16,985.74
2016,10,14,04,17,985.74
2016,10,14,04,18,985.85
2016,10,14,04,19,985.88
2016,10,14,04,20,985.81
2016,10,14,04,21,985.81
2016,10,14,04,22,985.85
2016,10,14,04,23,985.88
2016,10,14,04,24,985.88
2016,10,14,04,25,985.88
2016,10,14,04,26,985.91
2016,10,14,04,27,985.85
2016,10,14,04,28,985.78
2016,10,14,04,29,985.88
2016,10,14,04,30,985.85
2016,10,14,04,31,985.78
2016,10,14,04,32,985.88
2016,10,14,04,33,985.80
2016,10,14,04,34,985.64
2016,10,14,04,35,985.64
2016,10,14,04,36,985.61
2016,10,14,04,37,985.61
2016,10,14,04,38,985.71
2016,10,14,04,39,985.64
2016,10,14,04,40,985.68
2016,10,14,04,41,985.73
2016,10,14,04,42,985.54
2016,10,14,04,43,985.51
2016,10,14,04,44,985.51
2016,10,14,04,45,985.57
2016,10,14,04,46,985.54
2016,10,14,04,47,985.61
2016,10,14,04,48,985.61
2016,10,14,04,49,985.68
2016,10,14,04,50,985.71
2016,10,14,04,51,985.64
2016,10,14,04,52,985.61
2016,10,14,04,53,985.61
2016,10,14,04,54,985.57
2016,10,14,04,55,985.61
2016,10,14,04,56,985.64
2016,10,14,04,57,985.68
2016,10,14,04,58,985.68
2016,10,14,04,59,985.64
2016,10,14,05,00,985.64
2016,10,14,05,01,985.71
2016,10,14,05,02,985.74
2016,10,14,05,03,985.81
2016,10,14,05,04,985.85
2016,10,14,05,05,985.88
2016,10,14,05,06,985.85
2016,10,14,05,07,985.91
2016,10,14,05,08,985.91
2016,10,14,05,09,985.88
2016,10,14,05,10,985.91
2016,10,14,05,11,985.91
2016,10,14,05,12,985.98
2016,10,14,05,13,985.98
2016,10,14,05,14,986.02
2016,10,14,05,15,986.05
2016,10,14,05,16,986.02
2016,10,14,05,17,985.95
2016,10,14,05,18,986.02
2016,10,14,05,19,986.12
2016,10,14,05,20,986.12
2016,10,14,05,21,986.08
2016,10,14,05,22,986.12
2016,10,14,05,23,986.12
2016,10,14,05,24,986.12
2016,10,14,05,25,986.12
2016,10,14,05,26,986.15
2016,10,14,05,27,986.22
2016,10,14,05,28,986.29
2016,10,14,05,29,986.29
2016,10,14,05,30,986.25
2016,10,14,05,31,986.29
2016,10,14,05,32,986.29
2016,10,14,05,33,986.22
2016,10,14,05,34,986.18
2016,10,14,05,35,986.18
2016,10,14,05,36,986.12
2016,10,14,05,37,986.08
2016,10,14,05,38,985.95
2016,10,14,05,39,985.91
2016,10,14,05,40,985.88
2016,10,14,05,41,985.88
2016,10,14,05,42,985.95
2016,10,14,05,43,985.91
2016,10,14,05,44,985.85
2016,10,14,05,45,985.88
2016,10,14,05,46,985.91
2016,10,14,05,47,985.94
2016,10,14,05,48,985.78
2016,10,14,05,49,985.71
2016,10,14,05,50,985.68
2016,10,14,05,51,985.61
2016,10,14,05,52,985.57
2016,10,14,05,53,985.47
2016,10,14,05,54,985.34
2016,10,14,05,55,985.37
2016,10,14,05,56,985.37
2016,10,14,05,57,985.44
2016,10,14,05,58,985.41
2016,10,14,05,59,985.37
2016,10,14,06,00,985.37
2016,10,14,06,01,985.37
2016,10,14,06,02,985.30
2016,10,14,06,03,985.30
2016,10,14,06,04,985.37
2016,10,14,06,05,985.37
2016,10,14,06,06,985.37
2016,10,14,06,07,985.37
2016,10,14,06,08,985.30
2016,10,14,06,09,985.34
2016,10,14,06,10,985.34
2016,10,14,06,11,985.34
2016,10,14,06,12,985.37
2016,10,14,06,13,985.41
2016,10,14,06,14,985.47
2016,10,14,06,15,985.34
2016,10,14,06,16,985.30
2016,10,14,06,17,985.34
2016,10,14,06,18,985.27
2016,10,14,06,19,985.20
2016,10,14,06,20,985.24
2016,10,14,06,21,985.27
2016,10,14,06,22,985.27
2016,10,14,06,23,985.37
2016,10,14,06,24,985.37
2016,10,14,06,25,985.44
2016,10,14,06,26,985.47
2016,10,14,06,27,985.57
2016,10,14,06,28,985.61
2016,10,14,06,29,985.61
2016,10,14,06,30,985.54
2016,10,14,06,31,985.57
2016,10,14,06,32,985.57
2016,10,14,06,33,985.61
2016,10,14,06,34,985.74
2016,10,14,06,35,985.74
2016,10,14,06,36,985.74
2016,10,14,06,37,985.68
2016,10,14,06,38,985.74
2016,10,14,06,39,985.81
2016,10,14,06,40,985.81
2016,10,14,06,41,985.85
2016,10,14,06,42,985.89
2016,10,14,06,43,986.02
2016,10,14,06,44,986.05
2016,10,14,06,45,986.08
2016,10,14,06,46,986.12
2016,10,14,06,47,986.15
2016,10,14,06,48,986.05
2016,10,14,06,49,986.05
2016,10,14,06,50,986.12
2016,10,14,06,51,986.02
2016,10,14,06,52,986.08
2016,10,14,06,53,986.05
2016,10,14,06,54,986.05
2016,10,14,06,55,986.15
2016,10,14,06,56,986.08
2016,10,14,06,57,986.05
2016,10,14,06,58,986.02
2016,10,14,06,59,986.05
2016,10,14,07,00,985.98
2016,10,14,07,01,986.05
2016,10,14,07,02,986.12
2016,10,14,07,03,986.05
2016,10,14,07,04,986.12
2016,10,14,07,05,986.05
2016,10,14,07,06,986.02
2016,10,14,07,07,986.02
2016,10,14,07,08,986.02
2016,10,14,07,09,985.95
2016,10,14,07,10,985.88
2016,10,14,07,11,985.98
2016,10,14,07,12,985.98
2016,10,14,07,13,985.98
2016,10,14,07,14,985.95
2016,10,14,07,15,985.98
2016,10,14,07,16,985.81
2016,10,14,07,17,985.85
2016,10,14,07,18,985.88
2016,10,14,07,19,985.88
2016,10,14,07,20,985.88
2016,10,14,07,21,985.88
2016,10,14,07,22,985.91
2016,10,14,07,23,985.95
2016,10,14,07,24,986.02
2016,10,14,07,25,986.02
2016,10,14,07,26,986.05
2016,10,14,07,27,985.98
2016,10,14,07,28,985.98
2016,10,14,07,29,985.98
2016,10,14,07,30,985.98
2016,10,14,07,31,985.91
2016,10,14,07,32,985.98
2016,10,14,07,33,985.98
2016,10,14,07,34,986.02
2016,10,14,07,35,985.98
2016,10,14,07,36,985.95
2016,10,14,07,37,985.98
2016,10,14,07,38,985.91
2016,10,14,07,39,985.91
2016,10,14,07,40,986.02
2016,10,14,07,41,985.95
2016,10,14,07,42,985.88
2016,10,14,07,43,985.81
2016,10,14,07,44,985.68
2016,10,14,07,45,985.47
2016,10,14,07,46,985.37
2016,10,14,07,47,985.30
2016,10,14,07,48,985.30
2016,10,14,07,49,985.34
2016,10,14,07,50,985.37
2016,10,14,07,51,985.44
2016,10,14,07,52,985.47
2016,10,14,07,53,985.61
2016,10,14,07,54,985.61
2016,10,14,07,55,985.61
2016,10,14,07,56,985.61
2016,10,14,07,57,985.61
2016,10,14,07,58,985.54
2016,10,14,07,59,985.47
2016,10,14,08,00,985.51
2016,10,14,08,01,985.41
2016,10,14,08,02,985.51
2016,10,14,08,03,985.54
2016,10,14,08,04,985.57
2016,10,14,08,05,985.61
2016,10,14,08,06,985.61
2016,10,14,08,07,985.61
2016,10,14,08,08,985.61
2016,10,14,08,09,985.71
2016,10,14,08,10,985.68
2016,10,14,08,11,985.64
2016,10,14,08,12,985.61
2016,10,14,08,13,985.71
2016,10,14,08,14,985.71
2016,10,14,08,15,985.81
2016,10,14,08,16,985.78
2016,10,14,08,17,985.81
2016,10,14,08,18,985.68
2016,10,14,08,19,985.68
2016,10,14,08,20,985.68
2016,10,14,08,21,985.71
2016,10,14,08,22,985.64
2016,10,14,08,23,985.68
2016,10,14,08,24,985.71
2016,10,14,08,25,985.64
2016,10,14,08,26,985.74
2016,10,14,08,27,985.61
2016,10,14,08,28,985.54
2016,10,14,08,29,985.54
2016,10,14,08,30,985.51
2016,10,14,08,31,985.43
2016,10,14,08,32,985.30
2016,10,14,08,33,985.27
2016,10,14,08,34,985.34
2016,10,14,08,35,985.34
2016,10,14,08,36,985.37
2016,10,14,08,37,985.34
2016,10,14,08,38,985.37
2016,10,14,08,39,985.44
2016,10,14,08,40,985.47
2016,10,14,08,41,985.44
2016,10,14,08,42,985.41
2016,10,14,08,43,985.54
2016,10,14,08,44,985.34
2016,10,14,08,45,985.34
2016,10,14,08,46,985.37
2016,10,14,08,47,985.34
2016,10,14,08,48,985.34
2016,10,14,08,49,985.34
2016,10,14,08,50,985.34
2016,10,14,08,51,985.41
2016,10,14,08,52,985.51
2016,10,14,08,53,985.54
2016,10,14,08,54,985.54
2016,10,14,08,55,985.54
2016,10,14,08,56,985.51
2016,10,14,08,57,985.51
2016,10,14,08,58,985.51
2016,10,14,08,59,985.47
2016,10,14,09,00,985.44
2016,10,14,09,01,985.51
2016,10,14,09,02,985.57
2016,10,14,09,03,985.51
2016,10,14,09,04,985.51
2016,10,14,09,05,985.54
2016,10,14,09,06,985.64
2016,10,14,09,07,985.68
2016,10,14,09,08,985.61
2016,10,14,09,09,985.47
2016,10,14,09,10,985.51
2016,10,14,09,11,985.44
2016,10,14,09,12,985.47
2016,10,14,09,13,985.47
2016,10,14,09,14,985.41
2016,10,14,09,15,985.37
2016,10,14,09,16,985.41
2016,10,14,09,17,985.37
2016,10,14,09,18,985.37
2016,10,14,09,19,985.34
2016,10,14,09,20,985.34
2016,10,14,09,21,985.24
2016,10,14,09,22,985.27
2016,10,14,09,23,985.24
2016,10,14,09,24,985.10
2016,10,14,09,25,985.13
2016,10,14,09,26,985.07
2016,10,14,09,27,985.17
2016,10,14,09,28,985.10
2016,10,14,09,29,985.10
2016,10,14,09,30,985.17
2016,10,14,09,31,985.24
2016,10,14,09,32,985.20
2016,10,14,09,33,985.20
2016,10,14,09,34,985.27
2016,10,14,09,35,985.10
2016,10,14,09,36,985.03
2016,10,14,09,37,985.10
2016,10,14,09,38,985.07
2016,10,14,09,39,985.00
2016,10,14,09,40,985.10
2016,10,14,09,41,985.13
2016,10,14,09,42,985.17
2016,10,14,09,43,985.17
2016,10,14,09,44,985.20
2016,10,14,09,45,985.13
2016,10,14,09,46,985.17
2016,10,14,09,47,985.07
2016,10,14,09,48,985.07
2016,10,14,09,49,985.10
2016,10,14,09,50,985.07
2016,10,14,09,51,985.00
2016,10,14,09,52,985.10
2016,10,14,09,53,985.00
2016,10,14,09,54,985.00
2016,10,14,09,55,984.97
2016,10,14,09,56,984.97
2016,10,14,09,57,984.97
2016,10,14,09,58,984.97
2016,10,14,09,59,985.07
2016,10,14,10,00,985.10
2016,10,14,10,01,985.20
2016,10,14,10,02,985.17
2016,10,14,10,03,985.17
2016,10,14,10,04,985.13
2016,10,14,10,05,985.19
2016,10,14,10,06,985.00
2016,10,14,10,07,985.03
2016,10,14,10,08,985.10
2016,10,14,10,09,985.07
2016,10,14,10,10,985.10
2016,10,14,10,11,985.03
2016,10,14,10,12,985.03
2016,10,14,10,13,985.03
2016,10,14,10,14,985.00
2016,10,14,10,15,985.03
2016,10,14,10,16,985.00
2016,10,14,10,17,984.90
2016,10,14,10,18,984.86
2016,10,14,10,19,984.80
2016,10,14,10,20,984.86
2016,10,14,10,21,984.93
2016,10,14,10,22,984.90
2016,10,14,10,23,984.93
2016,10,14,10,24,984.90
2016,10,14,10,25,984.90
2016,10,14,10,26,984.90
2016,10,14,10,27,984.93
2016,10,14,10,28,984.90
2016,10,14,10,29,984.93
2016,10,14,10,30,984.93
2016,10,14,10,31,985.00
2016,10,14,10,32,984.97
2016,10,14,10,33,984.93
2016,10,14,10,34,984.93
2016,10,14,10,35,984.93
2016,10,14,10,36,984.97
2016,10,14,10,37,985.03
2016,10,14,10,38,984.97
2016,10,14,10,39,985.00
2016,10,14,10,40,984.93
2016,10,14,10,41,984.90
2016,10,14,10,42,985.00
2016,10,14,10,43,985.00
2016,10,14,10,44,985.07
2016,10,14,10,45,985.07
2016,10,14,10,46,985.10
2016,10,14,10,47,985.03
2016,10,14,10,48,985.13
2016,10,14,10,49,985.17
2016,10,14,10,50,985.24
2016,10,14,10,51,985.20
2016,10,14,10,52,985.20
2016,10,14,10,53,985.24
2016,10,14,10,54,985.24
2016,10,14,10,55,985.20
2016,10,14,10,56,985.17
2016,10,14,10,57,985.17
2016,10,14,10,58,985.17
2016,10,14,10,59,985.20
2016,10,14,11,00,985.17
2016,10,14,11,01,985.17
2016,10,14,11,02,985.24
2016,10,14,11,03,985.20
2016,10,14,11,04,985.20
2016,10,14,11,05,985.24
2016,10,14,11,06,985.24
2016,10,14,11,07,985.20
2016,10,14,11,08,985.24
2016,10,14,11,09,985.24
2016,10,14,11,10,985.20
2016,10,14,11,11,985.17
2016,10,14,11,12,985.13
2016,10,14,11,13,985.10
2016,10,14,11,14,985.17
2016,10,14,11,15,985.10
2016,10,14,11,16,985.13
2016,10,14,11,17,985.13
2016,10,14,11,18,985.03
2016,10,14,11,19,985.00
2016,10,14,11,20,984.97
2016,10,14,11,21,984.93
2016,10,14,11,22,985.00
2016,10,14,11,23,985.00
2016,10,14,11,24,985.00
2016,10,14,11,25,984.93
2016,10,14,11,26,985.00
2016,10,14,11,27,985.00
2016,10,14,11,28,984.90
2016,10,14,11,29,985.03
2016,10,14,11,30,984.97
2016,10,14,11,31,984.97
2016,10,14,11,32,984.97
2016,10,14,11,33,985.00
2016,10,14,11,34,984.83
2016,10,14,11,35,984.90
2016,10,14,11,36,984.93
2016,10,14,11,37,984.90
2016,10,14,11,38,984.90
2016,10,14,11,39,984.86
2016,10,14,11,40,984.86
2016,10,14,11,41,984.80
2016,10,14,11,42,984.86
2016,10,14,11,43,984.80
2016,10,14,11,44,984.86
2016,10,14,11,45,984.83
2016,10,14,11,46,984.80
2016,10,14,11,47,984.73
2016,10,14,11,48,984.76
2016,10,14,11,49,984.73
2016,10,14,11,50,984.93
2016,10,14,11,51,984.86
2016,10,14,11,52,984.83
2016,10,14,11,53,984.86
2016,10,14,11,54,984.76
2016,10,14,11,55,984.76
2016,10,14,11,56,984.66
2016,10,14,11,57,984.69
2016,10,14,11,58,984.54
2016,10,14,11,59,984.69
2016,10,14,12,00,984.66
2016,10,14,12,01,984.63
2016,10,14,12,02,984.59
2016,10,14,12,03,984.49
2016,10,14,12,04,984.56
2016,10,14,12,05,984.56
2016,10,14,12,06,984.49
2016,10,14,12,07,984.46
2016,10,14,12,08,984.42
2016,10,14,12,09,984.39
2016,10,14,12,10,984.46
2016,10,14,12,11,984.39
2016,10,14,12,12,984.49
2016,10,14,12,13,984.39
2016,10,14,12,14,984.42
2016,10,14,12,15,984.46
2016,10,14,12,16,984.42
2016,10,14,12,17,984.39
2016,10,14,12,18,984.42
2016,10,14,12,19,984.39
2016,10,14,12,20,984.49
2016,10,14,12,21,984.42
2016,10,14,12,22,984.39
2016,10,14,12,23,984.39
2016,10,14,12,24,984.36
2016,10,14,12,25,984.36
2016,10,14,12,26,984.39
2016,10,14,12,27,984.29
2016,10,14,12,28,984.36
2016,10,14,12,29,984.29
2016,10,14,12,30,984.25
2016,10,14,12,31,984.25
2016,10,14,12,32,984.32
2016,10,14,12,33,984.36
2016,10,14,12,34,984.36
2016,10,14,12,35,984.36
2016,10,14,12,36,984.39
2016,10,14,12,37,984.36
2016,10,14,12,38,984.39
2016,10,14,12,39,984.39
2016,10,14,12,40,984.46
2016,10,14,12,41,984.46
2016,10,14,12,42,984.53
2016,10,14,12,43,984.56
2016,10,14,12,44,984.73
2016,10,14,12,45,984.59
2016,10,14,12,46,984.66
2016,10,14,12,47,984.66
2016,10,14,12,48,984.63
2016,10,14,12,49,984.66
2016,10,14,12,50,984.63
2016,10,14,12,51,984.63
2016,10,14,12,52,984.59
2016,10,14,12,53,984.63
2016,10,14,12,54,984.56
2016,10,14,12,55,984.59
2016,10,14,12,56,984.59
2016,10,14,12,57,984.56
2016,10,14,12,58,984.56
2016,10,14,12,59,984.56
2016,10,14,13,00,984.56
2016,10,14,13,01,984.56
2016,10,14,13,02,984.63
2016,10,14,13,03,984.59
2016,10,14,13,04,984.56
2016,10,14,13,05,984.56
2016,10,14,13,06,984.59
2016,10,14,13,07,984.49
2016,10,14,13,08,984.56
2016,10,14,13,09,984.56
2016,10,14,13,10,984.49
2016,10,14,13,11,984.36
2016,10,14,13,12,984.25
2016,10,14,13,13,984.29
2016,10,14,13,14,984.32
2016,10,14,13,15,984.42
2016,10,14,13,16,984.46
2016,10,14,13,17,984.39
2016,10,14,13,18,984.36
2016,10,14,13,19,984.32
2016,10,14,13,20,984.36
2016,10,14,13,21,984.36
2016,10,14,13,22,984.32
2016,10,14,13,23,984.39
2016,10,14,13,24,984.36
2016,10,14,13,25,984.42
2016,10,14,13,26,984.25
2016,10,14,13,27,984.32
2016,10,14,13,28,984.25
2016,10,14,13,29,984.25
2016,10,14,13,30,984.25
2016,10,14,13,31,984.25
2016,10,14,13,32,984.32
2016,10,14,13,33,984.32
2016,10,14,13,34,984.25
2016,10,14,13,35,984.32
2016,10,14,13,36,984.25
2016,10,14,13,37,984.25
2016,10,14,13,38,984.25
2016,10,14,13,39,984.19
2016,10,14,13,40,984.19
2016,10,14,13,41,984.15
2016,10,14,13,42,984.22
2016,10,14,13,43,984.29
2016,10,14,13,44,984.36
2016,10,14,13,45,984.36
2016,10,14,13,46,984.29
2016,10,14,13,47,984.32
2016,10,14,13,48,984.39
2016,10,14,13,49,984.15
2016,10,14,13,50,984.19
2016,10,14,13,51,984.19
2016,10,14,13,52,984.25
2016,10,14,13,53,984.22
2016,10,14,13,54,984.19
2016,10,14,13,55,984.15
2016,10,14,13,56,984.19
2016,10,14,13,57,984.08
2016,10,14,13,58,984.15
2016,10,14,13,59,984.19
2016,10,14,14,00,984.19
2016,10,14,14,01,984.19
2016,10,14,14,02,984.19
2016,10,14,14,03,984.19
2016,10,14,14,04,984.29
2016,10,14,14,05,984.29
2016,10,14,14,06,984.25
2016,10,14,14,07,984.29
2016,10,14,14,08,984.32
2016,10,14,14,09,984.29
2016,10,14,14,10,984.29
2016,10,14,14,11,984.39
2016,10,14,14,12,984.32
2016,10,14,14,13,984.32
2016,10,14,14,14,984.25
2016,10,14,14,15,984.29
2016,10,14,14,16,984.36
2016,10,14,14,17,984.36
2016,10,14,14,18,984.32
2016,10,14,14,19,984.53
2016,10,14,14,20,984.53
2016,10,14,14,21,984.53
2016,10,14,14,22,984.56
2016,10,14,14,23,984.56
2016,10,14,14,24,984.49
2016,10,14,14,25,984.59
2016,10,14,14,26,984.59
2016,10,14,14,27,984.59
2016,10,14,14,28,984.66
2016,10,14,14,29,984.59
2016,10,14,14,30,984.69
2016,10,14,14,31,984.73
2016,10,14,14,32,984.69
2016,10,14,14,33,984.69
2016,10,14,14,34,984.73
2016,10,14,14,35,984.76
2016,10,14,14,36,984.83
2016,10,14,14,37,984.76
2016,10,14,14,38,984.80
2016,10,14,14,39,984.80
2016,10,14,14,40,984.80
2016,10,14,14,41,984.86
2016,10,14,14,42,984.93
2016,10,14,14,43,984.97
2016,10,14,14,44,985.00
2016,10,14,14,45,984.97
2016,10,14,14,46,984.97
2016,10,14,14,47,985.03
2016,10,14,14,48,985.07
2016,10,14,14,49,985.07
2016,10,14,14,50,985.03
2016,10,14,14,51,985.10
2016,10,14,14,52,985.10
2016,10,14,14,53,985.13
2016,10,14,14,54,985.17
2016,10,14,14,55,985.17
2016,10,14,14,56,985.24
2016,10,14,14,57,985.37
2016,10,14,14,58,985.37
2016,10,14,14,59,985.37
2016,10,14,15,00,985.44
2016,10,14,15,01,985.44
2016,10,14,15,02,985.30
2016,10,14,15,03,985.44
2016,10,14,15,04,985.41
2016,10,14,15,05,985.47
2016,10,14,15,06,985.57
2016,10,14,15,07,985.57
2016,10,14,15,08,985.54
2016,10,14,15,09,985.61
2016,10,14,15,10,985.54
2016,10,14,15,11,985.57
2016,10,14,15,12,985.54
2016,10,14,15,13,985.51
2016,10,14,15,14,985.61
2016,10,14,15,15,985.57
2016,10,14,15,16,985.61
2016,10,14,15,17,985.61
2016,10,14,15,18,985.57
2016,10,14,15,19,985.61
2016,10,14,15,20,985.44
2016,10,14,15,21,985.57
2016,10,14,15,22,985.57
2016,10,14,15,23,985.68
2016,10,14,15,24,985.68
2016,10,14,15,25,985.71
2016,10,14,15,26,985.74
2016,10,14,15,27,985.78
2016,10,14,15,28,985.78
2016,10,14,15,29,985.81
2016,10,14,15,30,985.85
2016,10,14,15,31,985.95
2016,10,14,15,32,985.98
2016,10,14,15,33,986.05
2016,10,14,15,34,986.08
2016,10,14,15,35,986.22
2016,10,14,15,36,986.22
2016,10,14,15,37,986.29
2016,10,14,15,38,986.32
2016,10,14,15,39,986.39
2016,10,14,15,40,986.35
2016,10,14,15,41,986.39
2016,10,14,15,42,986.46
2016,10,14,15,43,986.49
2016,10,14,15,44,986.52
2016,10,14,15,45,986.59
2016,10,14,15,46,986.62
2016,10,14,15,47,986.73
2016,10,14,15,48,986.76
2016,10,14,15,49,986.79
2016,10,14,15,50,986.83
2016,10,14,15,51,986.90
2016,10,14,15,52,986.93
2016,10,14,15,53,987.00
2016,10,14,15,54,987.06
2016,10,14,15,55,987.13
2016,10,14,15,56,987.23
2016,10,14,15,57,987.27
2016,10,14,15,58,987.34
2016,10,14,15,59,987.40
2016,10,14,16,00,987.44
2016,10,14,16,01,987.57
2016,10,14,16,02,987.64
2016,10,14,16,03,987.71
2016,10,14,16,04,987.71
2016,10,14,16,05,987.74
2016,10,14,16,06,987.78
2016,10,14,16,07,987.88
2016,10,14,16,08,987.91
2016,10,14,16,09,988.01
2016,10,14,16,10,988.01
2016,10,14,16,11,988.08
2016,10,14,16,12,988.11
2016,10,14,16,13,988.15
2016,10,14,16,14,988.22
2016,10,14,16,15,988.28
2016,10,14,16,16,988.35
2016,10,14,16,17,988.42
2016,10,14,16,18,988.45
2016,10,14,16,19,988.55
2016,10,14,16,20,988.55
2016,10,14,16,21,988.62
2016,10,14,16,22,988.72
2016,10,14,16,23,988.72
2016,10,14,16,24,988.79
2016,10,14,16,25,988.86
2016,10,14,16,26,988.89
2016,10,14,16,27,988.96
2016,10,14,16,28,988.93
2016,10,14,16,29,989.03
2016,10,14,16,30,989.06
2016,10,14,16,31,989.06
2016,10,14,16,32,989.16
2016,10,14,16,33,989.23
2016,10,14,16,34,989.27
2016,10,14,16,35,989.30
2016,10,14,16,36,989.37